TimePST,TemperatureF,Dew PointF,Humidity,Sea Level PressureIn,VisibilityMPH,Wind Direction,Wind SpeedMPH,Gust SpeedMPH,PrecipitationIn,Events,Conditions,WindDirDegrees,DateUTC
12:56 AM,54.0,30.9,41,30.12,10.0,Calm,Calm,-,N/A,,Overcast,0,2013-02-03 08:56:00
1:56 AM,54.0,30.9,41,30.11,10.0,SSW,8.1,-,N/A,,Overcast,200,2013-02-03 09:56:00
2:56 AM,54.0,30.9,41,30.08,10.0,South,9.2,-,N/A,,Overcast,180,2013-02-03 10:56:00
3:56 AM,54.0,30.9,41,30.08,10.0,SSW,12.7,-,N/A,,Overcast,200,2013-02-03 11:56:00
4:56 AM,54.0,30.0,40,30.07,10.0,SSW,9.2,-,N/A,,Overcast,200,2013-02-03 12:56:00
5:56 AM,54.0,30.0,40,30.09,10.0,South,9.2,-,N/A,,Overcast,190,2013-02-03 13:56:00
6:56 AM,54.0,30.0,40,30.10,10.0,SSW,4.6,-,N/A,,Overcast,200,2013-02-03 14:56:00
7:56 AM,55.9,30.0,37,30.10,10.0,SSW,4.6,-,N/A,,Overcast,200,2013-02-03 15:56:00
8:56 AM,57.0,32.0,39,30.10,10.0,South,9.2,-,N/A,,Overcast,190,2013-02-03 16:56:00
9:56 AM,57.9,30.9,36,30.09,10.0,South,5.8,-,N/A,,Mostly Cloudy,170,2013-02-03 17:56:00
10:56 AM,62.1,34.0,35,30.08,10.0,Calm,Calm,-,N/A,,Mostly Cloudy,0,2013-02-03 18:56:00
11:56 AM,63.0,32.0,31,30.04,10.0,SSW,5.8,-,N/A,,Scattered Clouds,200,2013-02-03 19:56:00
12:56 PM,64.9,33.1,31,30.00,10.0,South,8.1,-,N/A,,Scattered Clouds,170,2013-02-03 20:56:00
1:56 PM,66.0,33.1,29,29.98,10.0,Variable,3.5,-,N/A,,Scattered Clouds,0,2013-02-03 21:56:00
2:56 PM,66.9,30.9,26,29.97,10.0,South,3.5,-,N/A,,Scattered Clouds,190,2013-02-03 22:56:00
3:56 PM,66.0,30.0,26,29.97,10.0,South,8.1,-,N/A,,Scattered Clouds,190,2013-02-03 23:56:00
4:56 PM,64.9,28.9,26,29.97,10.0,South,4.6,-,N/A,,Scattered Clouds,170,2013-02-04 00:56:00
5:56 PM,63.0,30.9,30,29.99,10.0,SSW,8.1,-,N/A,,Partly Cloudy,200,2013-02-04 01:56:00
6:56 PM,60.1,32.0,35,29.99,10.0,SSW,8.1,-,N/A,,Clear,210,2013-02-04 02:56:00
7:56 PM,57.0,33.1,40,29.99,10.0,SW,6.9,-,N/A,,Clear,220,2013-02-04 03:56:00
8:56 PM,55.0,34.0,45,30.00,10.0,South,5.8,-,N/A,,Clear,190,2013-02-04 04:56:00
9:56 PM,54.0,34.0,47,30.01,10.0,SSW,8.1,-,N/A,,Clear,200,2013-02-04 05:56:00
10:56 PM,52.0,34.0,50,30.02,10.0,SSW,10.4,-,N/A,,Clear,200,2013-02-04 06:56:00
11:56 PM,51.1,34.0,52,30.03,10.0,SSW,5.8,-,N/A,,Clear,200,2013-02-04 07:56:00